Time,TemperatureF,DewpointF,PressureIn,WindDirection,WindDirectionDegrees,WindSpeedMPH,WindSpeedGustMPH,Humidity,HourlyPrecipIn,Conditions,Clouds,dailyrainin,SoftwareType,DateUTC
2014-01-26 00:00:00,36.8,33.9,29.97,WNW,294,1.0,4.0,89,0.00,,,0.18,Wunderground v.1.15,2014-01-26 00:00:00,
2014-01-26 00:05:00,36.9,34.0,29.97,WNW,292,1.0,4.0,89,0.00,,,0.00,Wunderground v.1.15,2014-01-26 00:05:00,
2014-01-26 00:10:00,36.9,34.0,29.97,NW,316,1.0,4.0,89,0.00,,,0.00,Wunderground v.1.15,2014-01-26 00:10:00,
2014-01-26 00:15:00,36.9,34.0,29.97,West,262,2.0,4.0,89,0.00,,,0.00,Wunderground v.1.15,2014-01-26 00:15:00,
2014-01-26 00:20:00,37.0,34.1,29.97,West,276,2.0,2.0,89,0.00,,,0.00,Wunderground v.1.15,2014-01-26 00:20:00,
2014-01-26 00:25:00,37.1,34.2,29.97,NW,312,1.0,4.0,89,0.00,,,0.00,Wunderground v.1.15,2014-01-26 00:25:00,
2014-01-26 00:30:00,37.1,34.2,29.96,WNW,283,1.0,1.0,89,0.00,,,0.00,Wunderground v.1.15,2014-01-26 00:30:00,
2014-01-26 00:35:00,37.0,34.1,29.96,SSW,208,0.0,4.0,89,0.00,,,0.00,Wunderground v.1.15,2014-01-26 00:35:00,
2014-01-26 00:40:00,36.8,33.9,29.96,WNW,283,0.0,4.0,89,0.00,,,0.00,Wunderground v.1.15,2014-01-26 00:40:00,
2014-01-26 00:45:00,36.6,33.7,29.96,WNW,283,0.0,4.0,89,0.00,,,0.00,Wunderground v.1.15,2014-01-26 00:45:00,
2014-01-26 00:50:00,36.4,33.5,29.96,WNW,300,0.0,4.0,89,0.00,,,0.00,Wunderground v.1.15,2014-01-26 00:50:00,
2014-01-26 00:55:00,36.2,33.5,29.96,WNW,295,0.0,4.0,90,0.00,,,0.00,Wunderground v.1.15,2014-01-26 00:55:00,
2014-01-26 01:00:00,36.0,33.4,29.96,WNW,286,0.0,4.0,90,0.00,,,0.00,Wunderground v.1.15,2014-01-26 01:00:00,
2014-01-26 01:05:00,35.9,33.5,29.96,WSW,248,1.0,4.0,91,0.00,,,0.00,Wunderground v.1.15,2014-01-26 01:05:00,
2014-01-26 01:10:00,35.8,33.4,29.96,West,277,0.0,4.0,91,0.00,,,0.00,Wunderground v.1.15,2014-01-26 01:10:00,
2014-01-26 01:20:00,35.9,33.5,29.96,West,280,1.0,1.0,91,0.00,,,0.00,Wunderground v.1.15,2014-01-26 01:20:00,
2014-01-26 01:25:00,36.0,33.6,29.96,WSW,247,1.0,4.0,91,0.00,,,0.00,Wunderground v.1.15,2014-01-26 01:25:00,
2014-01-26 01:30:00,36.1,33.7,29.96,West,278,1.0,4.0,91,0.00,,,0.00,Wunderground v.1.15,2014-01-26 01:30:00,
2014-01-26 01:35:00,36.2,33.5,29.95,WSW,240,1.0,4.0,90,0.00,,,0.00,Wunderground v.1.15,2014-01-26 01:35:00,
2014-01-26 01:40:00,36.3,33.6,29.96,WNW,284,0.0,4.0,90,0.00,,,0.00,Wunderground v.1.15,2014-01-26 01:40:00,
2014-01-26 01:45:00,36.3,33.6,29.96,NW,312,1.0,4.0,90,0.00,,,0.00,Wunderground v.1.15,2014-01-26 01:45:00,
2014-01-26 01:50:00,36.4,33.7,29.96,WNW,283,1.0,4.0,90,0.00,,,0.00,Wunderground v.1.15,2014-01-26 01:50:00,
2014-01-26 01:55:00,36.5,33.8,29.96,NW,304,2.0,4.0,90,0.00,,,0.00,Wunderground v.1.15,2014-01-26 01:55:00,
2014-01-26 02:00:00,36.8,34.1,29.96,WSW,253,3.0,6.0,90,0.00,,,0.00,Wunderground v.1.15,2014-01-26 02:00:00,
2014-01-26 02:05:00,37.0,34.1,29.96,NW,315,3.0,6.0,89,0.00,,,0.00,Wunderground v.1.15,2014-01-26 02:05:00,
2014-01-26 02:10:00,37.1,34.2,29.96,WNW,290,3.0,3.0,89,0.00,,,0.00,Wunderground v.1.15,2014-01-26 02:10:00,
2014-01-26 02:15:00,37.2,34.3,29.96,West,262,3.0,4.0,89,0.00,,,0.00,Wunderground v.1.15,2014-01-26 02:15:00,
2014-01-26 02:20:00,37.2,34.3,29.96,WNW,284,3.0,4.0,89,0.00,,,0.00,Wunderground v.1.15,2014-01-26 02:20:00,
2014-01-26 02:25:00,37.2,34.3,29.96,WSW,245,2.0,4.0,89,0.00,,,0.00,Wunderground v.1.15,2014-01-26 02:25:00,
2014-01-26 02:30:00,37.1,34.2,29.96,West,264,2.0,2.0,89,0.00,,,0.00,Wunderground v.1.15,2014-01-26 02:30:00,
2014-01-26 02:35:00,37.1,34.2,29.96,SW,222,2.0,4.0,89,0.00,,,0.00,Wunderground v.1.15,2014-01-26 02:35:00,
2014-01-26 02:40:00,37.0,34.3,29.96,West,281,1.0,4.0,90,0.00,,,0.00,Wunderground v.1.15,2014-01-26 02:40:00,
2014-01-26 02:45:00,37.0,34.3,29.95,WSW,240,2.0,4.0,90,0.00,,,0.00,Wunderground v.1.15,2014-01-26 02:45:00,
2014-01-26 02:50:00,37.0,34.3,29.95,WNW,295,2.0,4.0,90,0.00,,,0.00,Wunderground v.1.15,2014-01-26 02:50:00,
2014-01-26 02:55:00,37.1,34.4,29.95,West,268,2.0,4.0,90,0.00,,,0.00,Wunderground v.1.15,2014-01-26 02:55:00,
2014-01-26 03:00:00,37.1,34.4,29.95,WNW,287,1.0,4.0,90,0.00,,,0.00,Wunderground v.1.15,2014-01-26 03:00:00,
2014-01-26 03:05:00,37.1,34.4,29.95,West,278,2.0,4.0,90,0.00,,,0.00,Wunderground v.1.15,2014-01-26 03:05:00,
2014-01-26 03:10:00,37.3,34.6,29.95,WNW,298,1.0,4.0,90,0.00,,,0.00,Wunderground v.1.15,2014-01-26 03:10:00,
2014-01-26 03:15:00,37.4,34.7,29.94,West,267,2.0,4.0,90,0.00,,,0.00,Wunderground v.1.15,2014-01-26 03:15:00,
2014-01-26 03:20:00,37.5,34.8,29.94,WNW,298,2.0,2.0,90,0.00,,,0.00,Wunderground v.1.15,2014-01-26 03:20:00,
2014-01-26 03:25:00,37.5,34.8,29.93,WSW,238,1.0,4.0,90,0.00,,,0.00,Wunderground v.1.15,2014-01-26 03:25:00,
2014-01-26 03:30:00,37.3,34.6,29.92,SSW,193,0.0,4.0,90,0.00,,,0.00,Wunderground v.1.15,2014-01-26 03:30:00,
2014-01-26 03:35:00,37.2,34.5,29.91,SW,226,1.0,4.0,90,0.00,,,0.00,Wunderground v.1.15,2014-01-26 03:35:00,
2014-01-26 03:40:00,37.2,34.5,29.90,NW,318,1.0,4.0,90,0.00,,,0.00,Wunderground v.1.15,2014-01-26 03:40:00,
2014-01-26 03:45:00,37.1,34.4,29.90,SE,138,1.0,4.0,90,0.00,,,0.00,Wunderground v.1.15,2014-01-26 03:45:00,
2014-01-26 03:50:00,37.1,34.4,29.89,ESE,122,1.0,1.0,90,0.00,,,0.00,Wunderground v.1.15,2014-01-26 03:50:00,
2014-01-26 03:55:00,37.1,34.4,29.88,East,86,0.0,4.0,90,0.00,,,0.00,Wunderground v.1.15,2014-01-26 03:55:00,
2014-01-26 04:00:00,37.0,34.6,29.88,East,92,1.0,1.0,91,0.00,,,0.00,Wunderground v.1.15,2014-01-26 04:00:00,
2014-01-26 04:05:00,37.0,34.6,29.87,SE,132,0.0,4.0,91,0.00,,,0.00,Wunderground v.1.15,2014-01-26 04:05:00,
2014-01-26 04:10:00,37.0,34.6,29.86,SE,129,0.0,4.0,91,0.00,,,0.00,Wunderground v.1.15,2014-01-26 04:10:00,
2014-01-26 04:15:00,36.9,34.5,29.86,ESE,103,0.0,4.0,91,0.00,,,0.00,Wunderground v.1.15,2014-01-26 04:15:00,
2014-01-26 04:20:00,36.9,34.5,29.86,ENE,68,0.0,4.0,91,0.00,,,0.00,Wunderground v.1.15,2014-01-26 04:20:00,
2014-01-26 04:25:00,36.9,34.5,29.88,West,271,0.0,4.0,91,0.00,,,0.00,Wunderground v.1.15,2014-01-26 04:25:00,
2014-01-26 04:30:00,36.9,34.5,29.89,WNW,283,0.0,4.0,91,0.00,,,0.00,Wunderground v.1.15,2014-01-26 04:30:00,
2014-01-26 04:35:00,36.8,34.4,29.88,North,11,1.0,4.0,91,0.00,,,0.00,Wunderground v.1.15,2014-01-26 04:35:00,
2014-01-26 04:40:00,36.8,34.4,29.87,West,276,1.0,1.0,91,0.00,,,0.00,Wunderground v.1.15,2014-01-26 04:40:00,
2014-01-26 04:45:00,36.7,34.3,29.87,WSW,249,0.0,4.0,91,0.00,,,0.00,Wunderground v.1.15,2014-01-26 04:45:00,
2014-01-26 04:50:00,36.6,34.2,29.87,SW,228,0.0,4.0,91,0.00,,,0.00,Wunderground v.1.15,2014-01-26 04:50:00,
2014-01-26 04:55:00,36.6,34.2,29.86,ESE,119,0.0,4.0,91,0.00,,,0.00,Wunderground v.1.15,2014-01-26 04:55:00,
2014-01-26 05:00:00,36.5,34.1,29.86,East,82,1.0,4.0,91,0.00,,,0.00,Wunderground v.1.15,2014-01-26 05:00:00,
2014-01-26 05:05:00,36.5,34.1,29.85,East,91,1.0,4.0,91,0.00,,,0.00,Wunderground v.1.15,2014-01-26 05:05:00,
2014-01-26 05:10:00,36.6,34.2,29.85,WSW,239,1.0,4.0,91,0.00,,,0.00,Wunderground v.1.15,2014-01-26 05:10:00,
2014-01-26 05:15:00,36.8,34.1,29.84,NNW,342,1.0,4.0,90,0.00,,,0.00,Wunderground v.1.15,2014-01-26 05:15:00,
2014-01-26 05:20:00,37.0,34.3,29.84,NE,44,2.0,2.0,90,0.00,,,0.00,Wunderground v.1.15,2014-01-26 05:20:00,
2014-01-26 05:25:00,37.1,34.4,29.83,ESE,102,1.0,4.0,90,0.00,,,0.00,Wunderground v.1.15,2014-01-26 05:25:00,
2014-01-26 05:30:00,37.1,34.4,29.82,West,275,1.0,4.0,90,0.00,,,0.00,Wunderground v.1.15,2014-01-26 05:30:00,
2014-01-26 05:35:00,37.1,34.4,29.82,NE,53,1.0,4.0,90,0.00,,,0.00,Wunderground v.1.15,2014-01-26 05:35:00,
2014-01-26 05:40:00,37.2,34.5,29.82,West,281,2.0,2.0,90,0.00,,,0.00,Wunderground v.1.15,2014-01-26 05:40:00,
2014-01-26 05:45:00,37.2,34.5,29.81,NE,40,2.0,4.0,90,0.00,,,0.00,Wunderground v.1.15,2014-01-26 05:45:00,
2014-01-26 05:50:00,37.2,34.5,29.80,SW,225,1.0,4.0,90,0.00,,,0.00,Wunderground v.1.15,2014-01-26 05:50:00,
2014-01-26 05:55:00,37.3,34.6,29.78,ENE,75,2.0,4.0,90,0.00,,,0.00,Wunderground v.1.15,2014-01-26 05:55:00,
2014-01-26 06:00:00,37.5,35.1,29.76,ENE,65,2.0,4.0,91,0.00,,,0.00,Wunderground v.1.15,2014-01-26 06:00:00,
2014-01-26 06:05:00,37.6,35.2,29.78,WNW,300,2.0,4.0,91,0.00,,,0.00,Wunderground v.1.15,2014-01-26 06:05:00,
2014-01-26 06:10:00,37.8,35.7,29.76,SW,222,2.0,4.0,92,0.00,,,0.00,Wunderground v.1.15,2014-01-26 06:10:00,
2014-01-26 06:15:00,37.9,35.8,29.76,SSW,204,2.0,4.0,92,0.00,,,0.00,Wunderground v.1.15,2014-01-26 06:15:00,
2014-01-26 06:20:00,38.0,35.9,29.76,West,280,2.0,2.0,92,0.00,,,0.00,Wunderground v.1.15,2014-01-26 06:20:00,
2014-01-26 06:25:00,38.1,36.0,29.76,WNW,300,2.0,4.0,92,0.00,,,0.00,Wunderground v.1.15,2014-01-26 06:25:00,
2014-01-26 06:30:00,38.1,36.0,29.76,NNW,333,2.0,2.0,92,0.00,,,0.00,Wunderground v.1.15,2014-01-26 06:30:00,
2014-01-26 06:35:00,38.2,36.1,29.76,West,268,2.0,4.0,92,0.00,,,0.00,Wunderground v.1.15,2014-01-26 06:35:00,
2014-01-26 06:40:00,38.3,36.2,29.75,SSE,150,2.0,4.0,92,0.00,,,0.00,Wunderground v.1.15,2014-01-26 06:40:00,
2014-01-26 06:45:00,38.4,36.3,29.75,ENE,70,2.0,4.0,92,0.00,,,0.00,Wunderground v.1.15,2014-01-26 06:45:00,
2014-01-26 06:50:00,38.4,36.3,29.74,SW,222,2.0,4.0,92,0.00,,,0.00,Wunderground v.1.15,2014-01-26 06:50:00,
2014-01-26 07:00:00,38.9,36.5,29.73,SW,218,3.0,3.0,91,0.00,,,0.00,Wunderground v.1.15,2014-01-26 07:00:00,
2014-01-26 07:05:00,39.0,36.6,29.73,SW,226,3.0,4.0,91,0.00,,,0.00,Wunderground v.1.15,2014-01-26 07:05:00,
2014-01-26 07:10:00,39.0,36.6,29.72,WNW,284,2.0,4.0,91,0.00,,,0.00,Wunderground v.1.15,2014-01-26 07:10:00,
2014-01-26 07:15:00,39.1,36.4,29.72,SSE,152,3.0,4.0,90,0.00,,,0.00,Wunderground v.1.15,2014-01-26 07:15:00,
2014-01-26 07:20:00,39.1,36.4,29.71,ENE,57,3.0,3.0,90,0.00,,,0.00,Wunderground v.1.15,2014-01-26 07:20:00,
2014-01-26 07:25:00,39.1,36.4,29.71,NNW,335,2.0,4.0,90,0.00,,,0.00,Wunderground v.1.15,2014-01-26 07:25:00,
2014-01-26 07:30:00,39.1,36.4,29.70,SW,216,2.0,2.0,90,0.00,,,0.00,Wunderground v.1.15,2014-01-26 07:30:00,
2014-01-26 07:35:00,39.1,36.7,29.69,NW,315,3.0,3.0,91,0.00,,,0.00,Wunderground v.1.15,2014-01-26 07:35:00,
2014-01-26 07:40:00,39.1,36.7,29.69,ENE,70,3.0,3.0,91,0.00,,,0.00,Wunderground v.1.15,2014-01-26 07:40:00,
2014-01-26 07:45:00,39.1,36.7,29.68,SSW,204,2.0,4.0,91,0.00,,,0.00,Wunderground v.1.15,2014-01-26 07:45:00,
2014-01-26 07:50:00,39.1,36.7,29.67,East,90,2.0,2.0,91,0.00,,,0.00,Wunderground v.1.15,2014-01-26 07:50:00,
2014-01-26 07:55:00,39.1,36.7,29.66,WNW,290,2.0,4.0,91,0.00,,,0.00,Wunderground v.1.15,2014-01-26 07:55:00,
2014-01-26 08:00:00,39.0,36.6,29.65,ENE,72,2.0,6.0,91,0.00,,,0.00,Wunderground v.1.15,2014-01-26 08:00:00,
2014-01-26 08:05:00,39.0,36.9,29.64,West,274,2.0,6.0,92,0.00,,,0.00,Wunderground v.1.15,2014-01-26 08:05:00,
2014-01-26 08:15:00,38.9,37.0,29.62,SSE,150,2.0,4.0,93,0.09,,,0.02,Wunderground v.1.15,2014-01-26 08:15:00,
2014-01-26 08:20:00,38.9,37.0,29.61,SE,132,2.0,2.0,93,0.08,,,0.02,Wunderground v.1.15,2014-01-26 08:20:00,
2014-01-26 08:25:00,39.0,37.1,29.61,North,9,3.0,3.0,93,0.07,,,0.02,Wunderground v.1.15,2014-01-26 08:25:00,
2014-01-26 08:30:00,39.0,37.1,29.59,South,170,3.0,3.0,93,0.07,,,0.02,Wunderground v.1.15,2014-01-26 08:30:00,
2014-01-26 08:35:00,39.0,37.1,29.58,WNW,298,3.0,4.0,93,0.04,,,0.02,Wunderground v.1.15,2014-01-26 08:35:00,
2014-01-26 08:40:00,39.0,37.4,29.58,SW,222,2.0,2.0,94,0.04,,,0.03,Wunderground v.1.15,2014-01-26 08:40:00,
2014-01-26 08:45:00,39.0,37.4,29.58,SE,132,2.0,4.0,94,0.07,,,0.04,Wunderground v.1.15,2014-01-26 08:45:00,
2014-01-26 08:50:00,39.1,37.5,29.57,East,101,3.0,4.0,94,0.07,,,0.04,Wunderground v.1.15,2014-01-26 08:50:00,
2014-01-26 08:55:00,39.2,37.9,29.57,SE,134,3.0,4.0,95,0.07,,,0.05,Wunderground v.1.15,2014-01-26 08:55:00,
2014-01-26 09:05:00,39.5,38.2,29.56,NW,323,3.0,6.0,95,0.09,,,0.06,Wunderground v.1.15,2014-01-26 09:05:00,
2014-01-26 09:10:00,39.5,38.2,29.55,NW,314,3.0,4.0,95,0.07,,,0.06,Wunderground v.1.15,2014-01-26 09:10:00,
2014-01-26 09:15:00,39.6,38.3,29.54,SSE,159,3.0,4.0,95,0.10,,,0.07,Wunderground v.1.15,2014-01-26 09:15:00,
2014-01-26 09:20:00,39.7,38.4,29.53,ENE,72,3.0,4.0,95,0.10,,,0.07,Wunderground v.1.15,2014-01-26 09:20:00,
2014-01-26 09:25:00,39.7,38.4,29.52,WSW,250,3.0,4.0,95,0.10,,,0.08,Wunderground v.1.15,2014-01-26 09:25:00,
2014-01-26 09:30:00,39.7,38.7,29.52,WSW,255,4.0,4.0,96,0.10,,,0.09,Wunderground v.1.15,2014-01-26 09:30:00,
2014-01-26 09:35:00,39.7,38.7,29.50,NW,306,4.0,4.0,96,0.09,,,0.09,Wunderground v.1.15,2014-01-26 09:35:00,
2014-01-26 09:40:00,39.7,38.7,29.50,WNW,285,4.0,5.0,96,0.09,,,0.09,Wunderground v.1.15,2014-01-26 09:40:00,
2014-01-26 09:45:00,39.7,38.7,29.49,ENE,65,4.0,5.0,96,0.08,,,0.10,Wunderground v.1.15,2014-01-26 09:45:00,
2014-01-26 09:50:00,39.7,38.7,29.48,NNE,29,4.0,4.0,96,0.11,,,0.11,Wunderground v.1.15,2014-01-26 09:50:00,
2014-01-26 10:00:00,39.7,38.7,29.47,West,259,4.0,4.0,96,0.11,,,0.13,Wunderground v.1.15,2014-01-26 10:00:00,
2014-01-26 10:05:00,39.7,38.7,29.46,WNW,302,4.0,6.0,96,0.13,,,0.13,Wunderground v.1.15,2014-01-26 10:05:00,
2014-01-26 10:10:00,39.8,38.8,29.45,WNW,293,3.0,3.0,96,0.14,,,0.14,Wunderground v.1.15,2014-01-26 10:10:00,
2014-01-26 10:15:00,39.9,38.9,29.44,South,178,4.0,4.0,96,0.13,,,0.15,Wunderground v.1.15,2014-01-26 10:15:00,
2014-01-26 10:20:00,40.0,39.0,29.43,SSW,210,4.0,4.0,96,0.12,,,0.16,Wunderground v.1.15,2014-01-26 10:20:00,
2014-01-26 10:25:00,40.1,39.1,29.42,SE,138,4.0,5.0,96,0.08,,,0.17,Wunderground v.1.15,2014-01-26 10:25:00,
2014-01-26 10:30:00,40.2,39.4,29.41,West,262,4.0,4.0,97,0.11,,,0.17,Wunderground v.1.15,2014-01-26 10:30:00,
2014-01-26 10:35:00,40.3,39.5,29.40,WNW,292,3.0,4.0,97,0.10,,,0.17,Wunderground v.1.15,2014-01-26 10:35:00,
2014-01-26 10:40:00,40.4,39.6,29.39,WSW,247,3.0,4.0,97,0.08,,,0.18,Wunderground v.1.15,2014-01-26 10:40:00,
2014-01-26 10:45:00,40.6,39.8,29.38,NNW,331,4.0,4.0,97,0.07,,,0.18,Wunderground v.1.15,2014-01-26 10:45:00,
2014-01-26 10:50:00,40.7,39.9,29.38,SSE,156,4.0,13.0,97,0.04,,,0.18,Wunderground v.1.15,2014-01-26 10:50:00,
2014-01-26 10:55:00,40.9,40.1,29.36,SW,221,4.0,13.0,97,0.00,,,0.18,Wunderground v.1.15,2014-01-26 10:55:00,
2014-01-26 11:00:00,41.1,40.3,29.36,WNW,302,4.0,4.0,97,0.00,,,0.18,Wunderground v.1.15,2014-01-26 11:00:00,
2014-01-26 11:05:00,41.3,40.5,29.34,East,90,4.0,4.0,97,0.00,,,0.18,Wunderground v.1.15,2014-01-26 11:05:00,
2014-01-26 11:10:00,41.4,40.6,29.34,West,260,4.0,4.0,97,0.00,,,0.19,Wunderground v.1.15,2014-01-26 11:10:00,
2014-01-26 11:15:00,41.6,40.8,29.33,South,186,4.0,4.0,97,0.00,,,0.19,Wunderground v.1.15,2014-01-26 11:15:00,
2014-01-26 11:20:00,41.8,41.0,29.32,WSW,245,4.0,4.0,97,0.00,,,0.19,Wunderground v.1.15,2014-01-26 11:20:00,
2014-01-26 11:25:00,42.0,41.2,29.31,SE,132,3.0,6.0,97,0.04,,,0.20,Wunderground v.1.15,2014-01-26 11:25:00,
2014-01-26 11:30:00,42.2,41.4,29.30,ENE,78,3.0,3.0,97,0.04,,,0.20,Wunderground v.1.15,2014-01-26 11:30:00,
2014-01-26 11:35:00,42.4,41.6,29.30,SSW,195,4.0,4.0,97,0.04,,,0.20,Wunderground v.1.15,2014-01-26 11:35:00,
2014-01-26 11:40:00,42.5,41.7,29.30,ESE,105,4.0,4.0,97,0.04,,,0.20,Wunderground v.1.15,2014-01-26 11:40:00,
2014-01-26 11:45:00,42.7,41.9,29.29,WNW,293,4.0,7.0,97,0.00,,,0.20,Wunderground v.1.15,2014-01-26 11:45:00,
2014-01-26 11:50:00,42.9,42.1,29.28,SW,233,4.0,4.0,97,0.00,,,0.20,Wunderground v.1.15,2014-01-26 11:50:00,
2014-01-26 11:55:00,43.1,42.3,29.29,NNW,328,4.0,4.0,97,0.00,,,0.20,Wunderground v.1.15,2014-01-26 11:55:00,
2014-01-26 12:00:00,43.3,42.5,29.28,West,267,4.0,4.0,97,0.00,,,0.20,Wunderground v.1.15,2014-01-26 12:00:00,
2014-01-26 12:05:00,43.9,43.4,29.28,WSW,248,5.0,-999.0,98,0.02,,,0.21,Wunderground v.1.15,2014-01-26 12:05:00,
2014-01-26 12:19:00,44.2,43.7,29.27,West,270,4.0,-999.0,98,0.02,,,0.21,Wunderground v.1.15,2014-01-26 12:19:00,
2014-01-26 12:25:00,44.9,44.1,29.25,West,266,4.0,5.0,97,0.00,,,0.21,Wunderground v.1.15,2014-01-26 12:25:00,
2014-01-26 12:35:00,45.3,44.5,29.25,NW,307,4.0,5.0,97,0.00,,,0.21,Wunderground v.1.15,2014-01-26 12:35:00,
2014-01-26 12:40:00,45.4,44.6,29.24,East,81,4.0,10.0,97,0.00,,,0.21,Wunderground v.1.15,2014-01-26 12:40:00,
2014-01-26 12:50:00,45.9,45.1,29.23,WSW,245,4.0,4.0,97,0.00,,,0.21,Wunderground v.1.15,2014-01-26 12:50:00,
2014-01-26 12:55:00,46.1,45.3,29.22,SW,233,3.0,4.0,97,0.00,,,0.21,Wunderground v.1.15,2014-01-26 12:55:00,
2014-01-26 13:00:00,46.3,45.5,29.21,SSW,206,3.0,4.0,97,0.00,,,0.21,Wunderground v.1.15,2014-01-26 13:00:00,
2014-01-26 13:10:00,46.4,45.3,29.23,SW,224,4.0,5.0,96,0.00,,,0.22,Wunderground v.1.15,2014-01-26 13:10:00,
2014-01-26 13:15:00,46.4,45.3,29.24,WSW,256,4.0,5.0,96,0.22,,,0.24,Wunderground v.1.15,2014-01-26 13:15:00,
2014-01-26 13:25:00,45.0,42.5,29.24,NW,323,4.0,14.0,91,0.07,,,0.25,Wunderground v.1.15,2014-01-26 13:25:00,
2014-01-26 13:30:00,44.6,42.1,29.24,WNW,290,3.0,3.0,91,0.07,,,0.25,Wunderground v.1.15,2014-01-26 13:30:00,
2014-01-26 13:35:00,44.2,42.0,29.24,NW,311,3.0,14.0,92,0.06,,,0.25,Wunderground v.1.15,2014-01-26 13:35:00,
2014-01-26 13:45:00,44.0,41.5,29.23,West,274,3.0,14.0,91,0.00,,,0.25,Wunderground v.1.15,2014-01-26 13:45:00,
2014-01-26 13:50:00,44.2,41.7,29.23,NW,311,3.0,14.0,91,0.00,,,0.25,Wunderground v.1.15,2014-01-26 13:50:00,
2014-01-26 13:55:00,44.4,41.7,29.23,West,276,3.0,14.0,90,0.00,,,0.25,Wunderground v.1.15,2014-01-26 13:55:00,
2014-01-26 14:05:00,44.9,41.9,29.23,NW,312,2.0,4.0,89,0.00,,,0.25,Wunderground v.1.15,2014-01-26 14:05:00,
2014-01-26 14:10:00,45.2,41.9,29.23,NW,319,3.0,3.0,88,0.00,,,0.25,Wunderground v.1.15,2014-01-26 14:10:00,
2014-01-26 14:20:00,45.7,41.8,29.23,NW,324,2.0,14.0,86,0.00,,,0.25,Wunderground v.1.15,2014-01-26 14:20:00,
2014-01-26 14:25:00,45.7,41.4,29.24,NW,309,3.0,14.0,85,0.00,,,0.25,Wunderground v.1.15,2014-01-26 14:25:00,
2014-01-26 14:35:00,46.0,40.8,29.24,West,281,3.0,14.0,82,0.00,,,0.25,Wunderground v.1.15,2014-01-26 14:35:00,
2014-01-26 14:40:00,46.0,40.5,29.23,NNW,337,3.0,14.0,81,0.00,,,0.25,Wunderground v.1.15,2014-01-26 14:40:00,
2014-01-26 14:45:00,45.7,39.6,29.23,WNW,293,3.0,14.0,79,0.00,,,0.25,Wunderground v.1.15,2014-01-26 14:45:00,
2014-01-26 14:55:00,45.2,38.7,29.23,NW,321,3.0,14.0,78,0.00,,,0.25,Wunderground v.1.15,2014-01-26 14:55:00,
2014-01-26 15:00:00,45.1,38.0,29.24,WNW,295,2.0,2.0,76,0.00,,,0.25,Wunderground v.1.15,2014-01-26 15:00:00,
2014-01-26 15:10:00,45.3,36.8,29.24,NW,324,3.0,14.0,72,0.00,,,0.25,Wunderground v.1.15,2014-01-26 15:10:00,
2014-01-26 15:15:00,44.8,35.2,29.24,NNE,32,4.0,14.0,69,0.00,,,0.25,Wunderground v.1.15,2014-01-26 15:15:00,
2014-01-26 15:20:00,44.5,35.0,29.24,West,274,4.0,4.0,69,0.00,,,0.25,Wunderground v.1.15,2014-01-26 15:20:00,
2014-01-26 15:30:00,44.0,35.2,29.25,North,355,3.0,14.0,71,0.00,,,0.25,Wunderground v.1.15,2014-01-26 15:30:00,
2014-01-26 15:35:00,43.9,34.4,29.24,NW,316,3.0,14.0,69,0.00,,,0.25,Wunderground v.1.15,2014-01-26 15:35:00,
2014-01-26 15:40:00,43.8,34.6,29.24,NW,313,3.0,14.0,70,0.00,,,0.25,Wunderground v.1.15,2014-01-26 15:40:00,
2014-01-26 15:50:00,43.7,34.9,29.24,NNW,347,3.0,3.0,71,0.00,,,0.25,Wunderground v.1.15,2014-01-26 15:50:00,
2014-01-26 15:55:00,43.5,34.7,29.24,NNW,344,3.0,8.0,71,0.00,,,0.25,Wunderground v.1.15,2014-01-26 15:55:00,
2014-01-26 16:05:00,42.9,34.8,29.24,NNW,337,4.0,14.0,73,0.00,,,0.25,Wunderground v.1.15,2014-01-26 16:05:00,
2014-01-26 16:10:00,42.7,33.9,29.24,NNW,336,4.0,14.0,71,0.00,,,0.25,Wunderground v.1.15,2014-01-26 16:10:00,
2014-01-26 16:15:00,42.4,33.7,29.24,NW,314,4.0,14.0,71,0.00,,,0.25,Wunderground v.1.15,2014-01-26 16:15:00,
2014-01-26 16:25:00,40.8,35.1,29.26,North,352,5.0,5.0,80,0.00,,,0.25,Wunderground v.1.15,2014-01-26 16:25:00,
2014-01-26 16:30:00,39.1,34.7,29.26,WNW,290,5.0,14.0,84,0.00,,,0.25,Wunderground v.1.15,2014-01-26 16:30:00,
2014-01-26 16:35:00,38.1,34.6,29.25,SE,134,4.0,14.0,87,0.00,,,0.26,Wunderground v.1.15,2014-01-26 16:35:00,
2014-01-26 16:45:00,37.5,34.3,29.24,WNW,285,3.0,14.0,88,0.00,,,0.26,Wunderground v.1.15,2014-01-26 16:45:00,
2014-01-26 16:50:00,37.5,34.3,29.24,WSW,248,3.0,3.0,88,0.00,,,0.26,Wunderground v.1.15,2014-01-26 16:50:00,
2014-01-26 17:00:00,37.4,34.5,29.24,WNW,287,3.0,14.0,89,0.00,,,0.26,Wunderground v.1.15,2014-01-26 17:00:00,
2014-01-26 17:05:00,37.5,34.6,29.25,NW,315,2.0,14.0,89,0.00,,,0.26,Wunderground v.1.15,2014-01-26 17:05:00,
2014-01-26 17:10:00,37.5,34.6,29.24,West,267,2.0,2.0,89,0.00,,,0.26,Wunderground v.1.15,2014-01-26 17:10:00,
2014-01-26 17:20:00,37.6,34.7,29.25,WNW,295,3.0,3.0,89,0.00,,,0.26,Wunderground v.1.15,2014-01-26 17:20:00,
2014-01-26 17:25:00,37.6,34.7,29.25,SE,142,3.0,14.0,89,0.00,,,0.26,Wunderground v.1.15,2014-01-26 17:25:00,
2014-01-26 17:35:00,37.7,34.8,29.25,NW,307,3.0,14.0,89,0.00,,,0.26,Wunderground v.1.15,2014-01-26 17:35:00,
2014-01-26 17:40:00,37.7,34.8,29.25,West,271,3.0,14.0,89,0.00,,,0.26,Wunderground v.1.15,2014-01-26 17:40:00,
2014-01-26 17:45:00,37.7,34.8,29.25,WSW,253,3.0,14.0,89,0.00,,,0.26,Wunderground v.1.15,2014-01-26 17:45:00,
2014-01-26 17:55:00,37.7,34.8,29.25,SW,231,2.0,14.0,89,0.00,,,0.26,Wunderground v.1.15,2014-01-26 17:55:00,
2014-01-26 18:00:00,37.7,34.5,29.25,NW,318,3.0,14.0,88,0.00,,,0.26,Wunderground v.1.15,2014-01-26 18:00:00,
2014-01-26 18:10:00,37.8,34.6,29.25,West,269,3.0,14.0,88,0.00,,,0.26,Wunderground v.1.15,2014-01-26 18:10:00,
2014-01-26 18:15:00,37.7,34.5,29.25,WNW,295,3.0,14.0,88,0.00,,,0.26,Wunderground v.1.15,2014-01-26 18:15:00,
2014-01-26 18:20:00,37.7,34.2,29.25,NW,306,3.0,14.0,87,0.00,,,0.26,Wunderground v.1.15,2014-01-26 18:20:00,
2014-01-26 18:30:00,37.8,34.0,29.25,NW,313,2.0,2.0,86,0.00,,,0.26,Wunderground v.1.15,2014-01-26 18:30:00,
2014-01-26 18:35:00,37.8,34.0,29.25,NW,304,2.0,14.0,86,0.00,,,0.26,Wunderground v.1.15,2014-01-26 18:35:00,
2014-01-26 18:45:00,37.9,33.5,29.26,West,276,2.0,14.0,84,0.00,,,0.26,Wunderground v.1.15,2014-01-26 18:45:00,
2014-01-26 18:50:00,37.9,33.5,29.26,West,262,2.0,14.0,84,0.00,,,0.26,Wunderground v.1.15,2014-01-26 18:50:00,
2014-01-26 18:55:00,37.9,33.5,29.26,WNW,283,2.0,14.0,84,0.00,,,0.26,Wunderground v.1.15,2014-01-26 18:55:00,
2014-01-26 19:05:00,38.0,33.6,29.26,West,273,3.0,14.0,84,0.00,,,0.26,Wunderground v.1.15,2014-01-26 19:05:00,
2014-01-26 19:10:00,37.9,33.5,29.26,NW,305,3.0,14.0,84,0.00,,,0.26,Wunderground v.1.15,2014-01-26 19:10:00,
2014-01-26 19:15:00,37.7,33.3,29.26,SE,145,3.0,14.0,84,0.00,,,0.26,Wunderground v.1.15,2014-01-26 19:15:00,
2014-01-26 19:25:00,37.5,33.4,29.26,WSW,255,3.0,14.0,85,0.00,,,0.26,Wunderground v.1.15,2014-01-26 19:25:00,
2014-01-26 19:30:00,37.3,33.2,29.26,WNW,297,3.0,14.0,85,0.00,,,0.26,Wunderground v.1.15,2014-01-26 19:30:00,
2014-01-26 19:40:00,37.1,32.7,29.26,WSW,254,4.0,4.0,84,0.00,,,0.26,Wunderground v.1.15,2014-01-26 19:40:00,
2014-01-26 19:45:00,37.0,32.6,29.26,NW,321,4.0,14.0,84,0.00,,,0.26,Wunderground v.1.15,2014-01-26 19:45:00,
2014-01-26 19:50:00,36.9,32.5,29.26,West,279,3.0,14.0,84,0.00,,,0.26,Wunderground v.1.15,2014-01-26 19:50:00,
2014-01-26 20:00:00,36.8,32.4,29.27,WSW,255,2.0,2.0,84,0.00,,,0.26,Wunderground v.1.15,2014-01-26 20:00:00,
2014-01-26 20:05:00,36.8,32.4,29.27,NW,319,3.0,3.0,84,0.00,,,0.26,Wunderground v.1.15,2014-01-26 20:05:00,
2014-01-26 20:15:00,36.9,32.2,29.27,West,273,3.0,7.0,83,0.00,,,0.26,Wunderground v.1.15,2014-01-26 20:15:00,
2014-01-26 20:20:00,37.1,32.1,29.27,NW,316,4.0,4.0,82,0.00,,,0.26,Wunderground v.1.15,2014-01-26 20:20:00,
2014-01-26 20:25:00,37.3,32.3,29.27,ESE,115,4.0,14.0,82,0.00,,,0.26,Wunderground v.1.15,2014-01-26 20:25:00,
2014-01-26 20:35:00,37.4,32.1,29.27,West,277,4.0,14.0,81,0.00,,,0.26,Wunderground v.1.15,2014-01-26 20:35:00,
2014-01-26 20:40:00,37.3,31.7,29.26,West,269,3.0,14.0,80,0.00,,,0.26,Wunderground v.1.15,2014-01-26 20:40:00,
2014-01-26 20:50:00,37.2,32.2,29.26,West,280,3.0,3.0,82,0.00,,,0.26,Wunderground v.1.15,2014-01-26 20:50:00,
2014-01-26 20:55:00,37.1,32.1,29.27,WNW,284,3.0,14.0,82,0.00,,,0.26,Wunderground v.1.15,2014-01-26 20:55:00,
2014-01-26 21:00:00,36.8,32.1,29.27,WNW,288,3.0,14.0,83,0.00,,,0.26,Wunderground v.1.15,2014-01-26 21:00:00,
2014-01-26 21:10:00,36.5,32.1,29.27,South,186,2.0,14.0,84,0.00,,,0.26,Wunderground v.1.15,2014-01-26 21:10:00,
2014-01-26 21:15:00,36.5,32.1,29.27,NW,304,3.0,14.0,84,0.00,,,0.26,Wunderground v.1.15,2014-01-26 21:15:00,
2014-01-26 21:25:00,36.6,31.6,29.27,SW,229,3.0,14.0,82,0.00,,,0.26,Wunderground v.1.15,2014-01-26 21:25:00,
2014-01-26 21:30:00,36.5,31.8,29.27,West,280,3.0,3.0,83,0.00,,,0.26,Wunderground v.1.15,2014-01-26 21:30:00,
2014-01-26 21:35:00,36.3,31.6,29.27,West,267,2.0,5.0,83,0.00,,,0.26,Wunderground v.1.15,2014-01-26 21:35:00,
2014-01-26 21:45:00,36.1,31.7,29.27,WSW,255,2.0,14.0,84,0.00,,,0.26,Wunderground v.1.15,2014-01-26 21:45:00,
2014-01-26 21:50:00,35.9,31.5,29.26,SW,235,2.0,14.0,84,0.00,,,0.26,Wunderground v.1.15,2014-01-26 21:50:00,
2014-01-26 22:00:00,35.8,31.4,29.26,WNW,282,2.0,2.0,84,0.00,,,0.26,Wunderground v.1.15,2014-01-26 22:00:00,
2014-01-26 22:05:00,35.8,31.4,29.26,WSW,254,2.0,14.0,84,0.00,,,0.26,Wunderground v.1.15,2014-01-26 22:05:00,
2014-01-26 22:10:00,35.8,31.4,29.26,NNW,347,2.0,14.0,84,0.00,,,0.26,Wunderground v.1.15,2014-01-26 22:10:00,
2014-01-26 22:20:00,35.9,31.5,29.26,ENE,77,3.0,3.0,84,0.00,,,0.26,Wunderground v.1.15,2014-01-26 22:20:00,
2014-01-26 22:25:00,35.9,31.5,29.26,WNW,285,3.0,14.0,84,0.00,,,0.26,Wunderground v.1.15,2014-01-26 22:25:00,
2014-01-26 22:35:00,35.7,31.6,29.26,West,277,3.0,14.0,85,0.00,,,0.26,Wunderground v.1.15,2014-01-26 22:35:00,
2014-01-26 22:40:00,35.5,31.4,29.26,WSW,248,3.0,14.0,85,0.00,,,0.26,Wunderground v.1.15,2014-01-26 22:40:00,
2014-01-26 22:45:00,35.3,31.5,29.26,WNW,292,3.0,14.0,86,0.00,,,0.26,Wunderground v.1.15,2014-01-26 22:45:00,
2014-01-26 22:55:00,34.9,31.7,29.26,WSW,239,3.0,14.0,88,0.00,,,0.26,Wunderground v.1.15,2014-01-26 22:55:00,
2014-01-26 23:00:00,34.6,31.7,29.26,WNW,300,3.0,14.0,89,0.00,,,0.26,Wunderground v.1.15,2014-01-26 23:00:00,
2014-01-26 23:05:00,34.5,31.9,29.25,SSE,153,3.0,14.0,90,0.00,,,0.26,Wunderground v.1.15,2014-01-26 23:05:00,
2014-01-26 23:15:00,34.3,31.7,29.25,WSW,248,4.0,14.0,90,0.00,,,0.26,Wunderground v.1.15,2014-01-26 23:15:00,
2014-01-26 23:20:00,34.3,31.7,29.25,West,274,4.0,14.0,90,0.00,,,0.26,Wunderground v.1.15,2014-01-26 23:20:00,
2014-01-26 23:30:00,34.4,31.8,29.25,WNW,298,3.0,3.0,90,0.00,,,0.26,Wunderground v.1.15,2014-01-26 23:30:00,
2014-01-26 23:35:00,34.4,31.8,29.25,WSW,250,2.0,5.0,90,0.00,,,0.26,Wunderground v.1.15,2014-01-26 23:35:00,
2014-01-26 23:40:00,34.4,31.8,29.25,West,273,2.0,2.0,90,0.00,,,0.26,Wunderground v.1.15,2014-01-26 23:40:00,
2014-01-26 23:50:00,34.5,31.6,29.26,South,180,2.0,2.0,89,0.00,,,0.26,Wunderground v.1.15,2014-01-26 23:50:00,
2014-01-26 23:55:00,34.6,31.7,29.26,WSW,250,2.0,3.0,89,0.00,,,0.26,Wunderground v.1.15,2014-01-26 23:55:00,